Weather Service Report


125 
ASUS44 KLUB 260610
RWRTX 
WEST TEXAS WEATHER ROUNDUP
NATIONAL WEATHER SERVICE LUBBOCK TX
100 AM CDT TUE JUL 26 2016

NOTE: "FAIR" INDICATES FEW OR NO CLOUDS BELOW 12,000 FEET WITH NO
SIGNIFICANT WEATHER AND/OR OBSTRUCTIONS TO VISIBILITY.

TXZ004-006>008-010-012-014-016-OKZ002-260700-
TEXAS PANHANDLE/OKLAHOMA PANHANDLE
  
CITY           SKY/WX    TMP DP  RH WIND       PRES   REMARKS
AMARILLO       MOCLDY    73  59  61 W7        30.15S                  
BORGER         PTCLDY    83  66  56 E6        30.11S                  
CANADIAN       MOCLDY    80  69  69 E7        30.07S                  
DALHART        CLOUDY    71  62  73 S7        30.19R                  
DUMAS          CLOUDY    73  59  61 CALM      30.15S                  
GUYMON         PTCLDY    76  66  71 E12       30.11S                  
HEREFORD       MOCLDY    71  61  71 W10       30.19S                  
PAMPA          PTCLDY    75  67  74 SE8       30.12F                  
PERRYTON       PTCLDY    75  67  78 E7        30.11S                  
$$

TXZ026-029-035-045-048-260700-
SOUTHERN PANHANDLE/SOUTH PLAINS/ROLLING PLAINS
  
CITY           SKY/WX    TMP DP  RH WIND       PRES   REMARKS
CHILDRESS      CLOUDY    83  68  60 E5        30.01S                  
SEMINOLE       CLOUDY    81  58  45 NE3       30.09S                  
LUBBOCK        MOCLDY    78  60  53 N12       30.10S                  
PLAINVIEW      CLOUDY    73  62  68 NW10      30.12R                  
SNYDER           N/A     84  64  51 SE10G17   30.03S                  
$$

TXZ052-054-060>062-072-078-127-140-154-169-260700-
PERMIAN BASIN/CONCHO VALLEY/BIG COUNTRY/EDWARDS PLATEAU  
  
CITY           SKY/WX    TMP DP  RH WIND       PRES   REMARKS
ABILENE        CLEAR     79  67  66 S8        30.01R                  
BIG SPRING     PTCLDY    84  61  45 E10       30.04S                  
BROWNWOOD      PTCLDY    75  70  83 CALM      29.98F                  
JUNCTION       MOCLDY    75  69  81 VRB3      29.99F                  
MIDLAND        CLOUDY    88  58  36 E9        30.02S                  
ODESSA         CLOUDY    87  57  35 SE8       30.04R                  
SAN ANGELO     CLEAR     79  67  66 S6        29.99F                  
SONORA         PTCLDY    79  66  65 SE8       30.05F                  
SWEETWATER     CLEAR     81  64  57 SE13      30.04S                  
WINK           CLEAR     87  56  34 E8        30.00R                  
$$

TXZ055-058-074-075-080-082-260700-
FAR WEST/SOUTHWEST MOUNTAINS/TRANS PECOS
  
CITY           SKY/WX    TMP DP  RH WIND       PRES   REMARKS
ALPINE         CLEAR     79  54  41 SE5       30.20R                  
DRYDEN           N/A     87  62  43 E8        29.96R                  
EL PASO        PTCLDY    89  48  24 E13       30.04R                  
FORT STOCKTON  CLEAR     84  60  44 S6        30.02S                  
GUADALUPE PASS CLEAR     78  51  38 NE16      30.22S                  
MARFA          CLEAR     76  54  46 E12       30.18R                  
PECOS          CLEAR     86  57  36 E8        29.99S                  
PRESIDIO       FAIR      89  53  29 NE9       29.98R                  
$$

TXZ014-016-019-021>030-083-260700
TEXAS TECH WEST TEXAS MESONET/TEXAS PANHANDLE/NORTHERN SOUTH PLAINS
  
CITY           SKY/WX    TMP DP  RH WIND       PRES   REMARKS
ABERNATHY 5ENE   N/A     75  62  62 N10       30.14R                  
AMARILLO 9NNE    N/A     73  60  63 SW3       30.14F                  
AMARILLO 7SSE    N/A     72  60  65 NW7       30.17S                  
AMHERST 1NE    RAIN      71  63  75 NW15G21   30.18S                  
BOOTLEG 11WNW    N/A     68  64  86 W10       30.24F                  
CANADIAN 6E      N/A     77  67  72 NE7       30.06F                  
CAPROCK CYN SP   N/A     75  62  63 NW6       30.08S                  
CHILDRESS 2NNE   N/A     80  68  67 E6        30.03S                  
CLARENDON 2WSW   N/A     71  65  80 N1        30.10S                  
CLAUDE 12SW      N/A     72  62  70 W10       30.15R                  
DIMMITT 2NE      N/A     67  62  81 NW12      30.19F                  
FLOYDADA 2NNE    N/A     74  60  61 N6        30.10R                  
FRIONA 2NE       N/A     69  63  82 W8        30.22F                  
GOODLETT 3W      N/A     81  67  63 E5        30.00S                  
HART 3N          N/A     70  60  69 NW12      30.17F                  
HEREFORD 2NW     N/A     67  60  78 W6        30.21F                  
MCLEAN 1E        N/A     76  66  69 E6        30.09F                  
MEMPHIS 1NE      N/A     77  66  68 N2        30.05R                  
MULESHOE 2SSW    N/A     71  63  74 W10       30.21S                  
OLTON 6S         N/A     73  60  63 NW14      30.16S                  
PALO DURO SP     N/A     72  61  68 W10       30.16R                  
PAMPA 2E         N/A     72  66  81 SE7       30.13S                  
PLAINVIEW 1S     N/A     74  64  69 NW10G17   30.14F                  
SILVERTON 7ESE   N/A     69  62  78 W7        30.10S                  
TULIA 2ENE       N/A     70  64  82 NW13      30.16S                  
TURKEY 2WSW      N/A     76  65  67 NW8       30.06S                  
UMBARGER 3NNE    N/A     69  60  74 W9        30.18F                  
$$

TXZ033>036-039>041-045>048-260700
TEXAS TECH WEST TEXAS MESONET/SOUTH PLAINS  
  
CITY           SKY/WX    TMP DP  RH WIND       PRES   REMARKS
AIKEN 3WSW       N/A     75  64  68 NW9       30.14R                  
ANDREWS 2NE      N/A     84  55  37 NE3       30.08S                  
ANTON 6SSW       N/A     76  61  59 NW17G23   30.14S                  
BROWNFIELD 2S    N/A     80  62  54 N10       30.12R                  
DENVR CTY 7WNW   N/A     78  58  50 N13       30.14R                  
GAIL 2ESE        N/A     76  67  74 NE2       30.04S                  
LAMESA 2SE       N/A     81  61  49 NE7       30.06F                  
LEVELLAND 4S     N/A     77  59  54 NW18G24   30.17R                  
LUBBOCK 3WNW     N/A     79  56  45 NW9       30.12R                  
MORTON 1ENE      N/A     72  61  68 NW18G25   30.19F                  
ODONNELL 1N      N/A     80  58  47 NE5       30.07S                  
PLAINS 3N        N/A     76  60  58 N24G33    30.16S                  
RALLS 1SE        N/A     76  64  67 N5        30.09S                  
REESE CENTER     N/A     77  58  52 NW12      30.14S                  
SEAGRAVES 1SW    N/A     81  61  50 N6        30.10S                  
SEMINOLE 2NNE    N/A     80  58  45 NE6       30.08F                  
SLATON 2NE       N/A     77  61  58 N3        30.09S                  
SNYDER 3E        N/A     82  64  55 SE10      30.03S                  
SUNDOWN 8SW      N/A     75  59  57 NW18G25   30.17S                  
TAHOKA 3NNE      N/A     74  64  70 NE5       30.09S                  
WOLFFORTH 6SSW   N/A     79  59  50 N15G22    30.12R                  
$$

TXZ031-032-036>038-042>044-260700-
TEXAS TECH WEST TEXAS MESONET/ROLLING PLAINS 
  
CITY           SKY/WX    TMP DP  RH WIND       PRES   REMARKS
ASPERMONT 3NE    N/A     84  65  53 SE7       30.00S                  
FLUVANNA 3WNW    N/A     77  64  63 E5        30.05F                  
GRAHAM 5SSW      N/A     80  62  54 E5        30.06F                  
GUTHRIE 10WSW    N/A     85  65  51 SE9       30.01S                  
HASKELL 1NW      N/A     83  65  54 S8G14     29.99S                  
JAYTON 1SSE      N/A     83  65  54 SE7       30.00F                  
KNOX CITY 3NW    N/A     85  65  50 SE12      29.99R                  
LK A HENRY 1NW   N/A     79  66  65 NE5       30.03S                  
NORTHFIELD 1S    N/A     77  70  80 N3        30.04R                  
PADUCAH 10SW     N/A     79  67  67 CALM      30.02S                  
POST 1NE         N/A     78  67  70 N3        30.04F                  
RRING SPRGS 3N   N/A     77  64  65 N6        30.07R                  
SEYMOUR 3NW      N/A     83  66  56 SE8       29.98R                  
SPUR 1W          N/A     79  65  62 E5        30.03S                  
WEINERT 2NNE     N/A     84  68  57 S9        29.99S                  
WHITE RVR 6NE    N/A     79  61  53 NE8       30.05F                  
$$

TXZ052-054-060>062-072-078-127-140-154-169-260700-
TEXAS TECH WEST TEXAS MESONET/PERMIAN BASIN/
CONCHO VALLEY/BIG COUNTRY/EDWARDS PLATEAU
  
CITY           SKY/WX    TMP DP  RH WIND       PRES   REMARKS
COYANOSA 2N      N/A     82  64  56 E6        30.00F                  
JUNCTION 1SSW    N/A     73  69  87 SE1       30.00F                  
MERTZON 3NNE     N/A     79  67  65 SE7       30.02F                  
SAN ANGELO 7NW   N/A     79  64  59 E7        30.01F                  
STRLNG CT 4WSW   N/A     81  64  55 E14       30.03S                  
ST LAWRNCE 5SW   N/A     83  59  44 SE15      30.03S                  
SWEETWATR 11SW   N/A     79  66  65 SE16      30.04F                  
WALL 1E          N/A     78  65  64 E1        30.02R                  
$$

TXZ055-058-074-075-080-082-260700-
TEXAS TECH WEST TEXAS MESONET/FAR WEST/SOUTHWEST MOUNTAINS/TRANS PECOS
  
CITY           SKY/WX    TMP DP  RH WIND       PRES   REMARKS
PRSMN GAP BBNP   N/A     88  58  36 E5        30.01R                  
GUADLPE MTN NP   N/A     77  49  37 NE6       30.25S                  
$$
  

Return to Home page


Western Regional Climate Center, wrcc@dri.edu